• In Deutschland
  • Länderverzeichnis
  • Für 7 Tage
  • Wassertemperatur
  • Satellitenkarten
  • Wetterkarte
  • Widgets
  • user-avatar
    Anmelden

    Stündliche Wetter Bengazi

    Heute, 26 September, Mittwoch

    Zeit Temperatur Niederschläge Wind Luftdruck Luftfeuchtigkeit
    00:00 +28°C° 0.3 mm 6 m/S 761 mmHg 70%
    01:00 +28°C° 0.3 mm 6 m/S 761 mmHg 71%
    02:00 +28°C° 0.8 mm 6 m/S 761 mmHg 72%
    03:00 +28°C° 0.8 mm 6 m/S 761 mmHg 72%
    04:00 +27°C° 0.8 mm 7 m/S 761 mmHg 73%
    05:00 +28°C° 0.3 mm 7 m/S 761 mmHg 71%
    06:00 +28°C° 0.3 mm 7 m/S 761 mmHg 70%
    07:00 +28°C° 0.3 mm 7 m/S 761 mmHg 68%
    08:00 +29°C° 0 mm 7 m/S 762 mmHg 63%
    09:00 +30°C° 0 mm 7 m/S 762 mmHg 59%
    10:00 +30°C° 0 mm 7 m/S 762 mmHg 55%
    11:00 +32°C° 0 mm 7 m/S 762 mmHg 54%
    12:00 +32°C° 0 mm 7 m/S 761 mmHg 53%
    13:00 +32°C° 0 mm 8 m/S 761 mmHg 52%
    14:00 +32°C° 0.2 mm 8 m/S 761 mmHg 52%
    15:00 +32°C° 0.2 mm 8 m/S 761 mmHg 52%
    16:00 +32°C° 0.2 mm 8 m/S 760 mmHg 52%
    17:00 +31°C° 0.3 mm 8 m/S 760 mmHg 54%
    18:00 +31°C° 0.3 mm 8 m/S 761 mmHg 56%
    19:00 +29°C° 0.3 mm 8 m/S 761 mmHg 58%
    20:00 +29°C° 0.2 mm 7 m/S 761 mmHg 58%
    21:00 +28°C° 0.2 mm 6 m/S 761 mmHg 59%
    22:00 +28°C° 0.2 mm 5 m/S 761 mmHg 59%
    23:00 +27°C° 0.7 mm 5 m/S 760 mmHg 60%

    Morgen, 27 September, Donnerstag

    Zeit Temperatur Niederschläge Wind Luftdruck Luftfeuchtigkeit
    00:00 +27°C° 0.7 mm 4 m/S 760 mmHg 61%
    01:00 +26°C° 0.7 mm 3 m/S 759 mmHg 62%
    02:00 +26°C° 0.5 mm 4 m/S 759 mmHg 62%
    03:00 +26°C° 0.5 mm 4 m/S 759 mmHg 63%
    04:00 +25°C° 0.5 mm 5 m/S 758 mmHg 64%
    05:00 +25°C° 0.8 mm 5 m/S 758 mmHg 64%
    06:00 +25°C° 0.8 mm 5 m/S 758 mmHg 64%
    07:00 +25°C° 0.8 mm 5 m/S 758 mmHg 64%
    08:00 +26°C° 0.7 mm 5 m/S 758 mmHg 64%
    09:00 +26°C° 0.7 mm 5 m/S 758 mmHg 63%
    10:00 +26°C° 0.7 mm 5 m/S 759 mmHg 63%
    11:00 +27°C° 0.2 mm 5 m/S 758 mmHg 59%
    12:00 +28°C° 0.2 mm 5 m/S 757 mmHg 56%
    13:00 +28°C° 0.2 mm 5 m/S 757 mmHg 52%
    14:00 +28°C° 0.3 mm 5 m/S 756 mmHg 54%
    15:00 +28°C° 0.3 mm 6 m/S 756 mmHg 55%
    16:00 +28°C° 0.3 mm 6 m/S 756 mmHg 57%
    17:00 +27°C° 0.2 mm 7 m/S 756 mmHg 62%
    18:00 +26°C° 0.2 mm 7 m/S 755 mmHg 68%
    19:00 +24°C° 0.2 mm 8 m/S 755 mmHg 73%
    20:00 +24°C° 0.2 mm 11 m/S 755 mmHg 70%
    21:00 +24°C° 0.2 mm 15 m/S 755 mmHg 67%
    22:00 +23°C° 0.2 mm 18 m/S 755 mmHg 64%
    23:00 +23°C° 0.1 mm 17 m/S 755 mmHg 64%

    übermorgen, 28 September, Freitag

    Zeit Temperatur Niederschläge Wind Luftdruck Luftfeuchtigkeit
    00:00 +23°C° 0.1 mm 16 m/S 755 mmHg 64%
    01:00 +23°C° 0.1 mm 14 m/S 755 mmHg 65%
    02:00 +23°C° 0.5 mm 14 m/S 754 mmHg 67%
    03:00 +23°C° 0.5 mm 13 m/S 754 mmHg 69%
    04:00 +23°C° 0.5 mm 12 m/S 754 mmHg 71%
    05:00 +23°C° 0.2 mm 12 m/S 754 mmHg 69%
    06:00 +23°C° 0.2 mm 12 m/S 754 mmHg 68%
    07:00 +24°C° 0.2 mm 12 m/S 755 mmHg 66%
    08:00 +24°C° 0.1 mm 12 m/S 755 mmHg 64%
    09:00 +26°C° 0.1 mm 12 m/S 755 mmHg 61%
    10:00 +27°C° 0.1 mm 12 m/S 756 mmHg 59%
    11:00 +27°C° 0.2 mm 13 m/S 756 mmHg 58%
    12:00 +27°C° 0.2 mm 13 m/S 756 mmHg 58%
    13:00 +28°C° 0.2 mm 14 m/S 756 mmHg 57%
    14:00 +27°C° 0.5 mm 13 m/S 755 mmHg 58%
    15:00 +27°C° 0.5 mm 13 m/S 755 mmHg 60%
    16:00 +27°C° 0.5 mm 12 m/S 755 mmHg 61%
    17:00 +26°C° 1.3 mm 11 m/S 756 mmHg 65%
    18:00 +26°C° 1.3 mm 10 m/S 756 mmHg 69%
    19:00 +24°C° 1.3 mm 10 m/S 757 mmHg 73%
    20:00 +24°C° 0.7 mm 10 m/S 757 mmHg 73%
    21:00 +26°C° 0.7 mm 10 m/S 758 mmHg 72%
    22:00 +26°C° 0.7 mm 10 m/S 758 mmHg 72%
    23:00 +26°C° 0.3 mm 10 m/S 758 mmHg 72%

    29 September, Samstag

    Zeit Temperatur Niederschläge Wind Luftdruck Luftfeuchtigkeit
    00:00 +26°C° 0.3 mm 10 m/S 758 mmHg 72%
    01:00 +26°C° 0.3 mm 9 m/S 758 mmHg 71%
    02:00 +26°C° 0.8 mm 9 m/S 758 mmHg 71%
    03:00 +26°C° 0.8 mm 9 m/S 758 mmHg 72%
    04:00 +26°C° 0.8 mm 9 m/S 758 mmHg 72%
    05:00 +26°C° 0.5 mm 9 m/S 758 mmHg 70%
    06:00 +26°C° 0.5 mm 9 m/S 759 mmHg 69%
    07:00 +26°C° 0.5 mm 8 m/S 759 mmHg 68%
    08:00 +27°C° 0.1 mm 8 m/S 759 mmHg 65%
    09:00 +27°C° 0.1 mm 8 m/S 759 mmHg 62%
    10:00 +28°C° 0.1 mm 8 m/S 759 mmHg 59%
    11:00 +28°C° 0.2 mm 8 m/S 759 mmHg 58%
    12:00 +28°C° 0.2 mm 8 m/S 759 mmHg 58%
    13:00 +28°C° 0.2 mm 8 m/S 759 mmHg 57%
    14:00 +28°C° 0.1 mm 7 m/S 759 mmHg 58%
    15:00 +28°C° 0.1 mm 7 m/S 759 mmHg 59%
    16:00 +27°C° 0.1 mm 7 m/S 759 mmHg 60%
    17:00 +27°C° 0.3 mm 6 m/S 760 mmHg 61%
    18:00 +27°C° 0.3 mm 6 m/S 760 mmHg 63%
    19:00 +27°C° 0.3 mm 5 m/S 760 mmHg 64%
    20:00 +27°C° 0.6 mm 5 m/S 761 mmHg 64%
    21:00 +26°C° 0.6 mm 5 m/S 761 mmHg 64%
    22:00 +26°C° 0.6 mm 4 m/S 761 mmHg 64%
    23:00 +26°C° 0.4 mm 4 m/S 761 mmHg 63%

    30 September, Sonntag

    Zeit Temperatur Niederschläge Wind Luftdruck Luftfeuchtigkeit
    00:00 +26°C° 0.4 mm 4 m/S 760 mmHg 63%
    01:00 +26°C° 0.4 mm 4 m/S 760 mmHg 62%
    02:00 +26°C° 0 mm 4 m/S 760 mmHg 62%
    03:00 +26°C° 0 mm 4 m/S 760 mmHg 61%
    04:00 +26°C° 0 mm 3 m/S 760 mmHg 61%
    05:00 +26°C° 0 mm 3 m/S 760 mmHg 59%
    06:00 +27°C° 0 mm 3 m/S 760 mmHg 58%
    07:00 +27°C° 0 mm 3 m/S 761 mmHg 57%
    08:00 +27°C° 0 mm 3 m/S 761 mmHg 55%
    09:00 +28°C° 0 mm 3 m/S 761 mmHg 53%
    10:00 +29°C° 0 mm 3 m/S 761 mmHg 51%
    11:00 +29°C° 0 mm 4 m/S 761 mmHg 52%
    12:00 +29°C° 0 mm 4 m/S 761 mmHg 54%
    13:00 +29°C° 0 mm 4 m/S 760 mmHg 56%
    14:00 +29°C° 0 mm 4 m/S 760 mmHg 56%
    15:00 +29°C° 0 mm 4 m/S 760 mmHg 57%
    16:00 +29°C° 0 mm 4 m/S 760 mmHg 58%
    17:00 +28°C° 0 mm 3 m/S 761 mmHg 59%
    18:00 +28°C° 0 mm 3 m/S 761 mmHg 59%
    19:00 +28°C° 0 mm 3 m/S 761 mmHg 60%
    20:00 +28°C° 0 mm 3 m/S 761 mmHg 60%
    21:00 +27°C° 0 mm 2 m/S 761 mmHg 61%
    22:00 +27°C° 0 mm 2 m/S 761 mmHg 61%
    23:00 +27°C° 0 mm 2 m/S 761 mmHg 61%

    1 Oktober, Montag

    Zeit Temperatur Niederschläge Wind Luftdruck Luftfeuchtigkeit
    00:00 +27°C° 0 mm 2 m/S 761 mmHg 61%
    01:00 +27°C° 0 mm 2 m/S 760 mmHg 61%
    02:00 +27°C° 0 mm 2 m/S 760 mmHg 61%
    03:00 +26°C° 0 mm 2 m/S 760 mmHg 62%
    04:00 +26°C° 0 mm 1 m/S 760 mmHg 62%
    05:00 +26°C° 0 mm 1 m/S 760 mmHg 61%
    06:00 +27°C° 0 mm 2 m/S 761 mmHg 60%
    07:00 +27°C° 0 mm 2 m/S 761 mmHg 58%
    08:00 +27°C° 0 mm 2 m/S 761 mmHg 56%
    09:00 +28°C° 0 mm 2 m/S 761 mmHg 54%
    10:00 +29°C° 0 mm 3 m/S 761 mmHg 51%
    11:00 +29°C° 0 mm 3 m/S 761 mmHg 50%
    12:00 +29°C° 0 mm 4 m/S 760 mmHg 49%
    13:00 +30°C° 0 mm 5 m/S 760 mmHg 48%
    14:00 +30°C° 0 mm 5 m/S 760 mmHg 49%
    15:00 +29°C° 0 mm 5 m/S 760 mmHg 50%
    16:00 +29°C° 0 mm 4 m/S 760 mmHg 51%
    17:00 +29°C° 0 mm 4 m/S 760 mmHg 53%
    18:00 +28°C° 0 mm 4 m/S 760 mmHg 55%
    19:00 +28°C° 0 mm 3 m/S 760 mmHg 57%
    20:00 +28°C° 0 mm 3 m/S 760 mmHg 58%
    21:00 +28°C° 0 mm 2 m/S 760 mmHg 58%
    22:00 +27°C° 0 mm 2 m/S 760 mmHg 59%
    23:00 +27°C° 0 mm 1 m/S 760 mmHg 60%
    Mehr zeigen